Wind_Speed
80 81 82 82 83 84 85 86 86 87 88 89 89 90 90 91 91 91 91 92 92 92 93 93 93 94 94 95 96 96 96 96 97 96 97 97 97 97 98 98 99 99 100 100 101 102 102 103 103 104 104 104 105 105 106 106 107 107 107 108 108 108 109 109 109 110 110 111 111 111 111 111 111 111 111 111 111 111 110 110 110 109 109 108 108 108
81 82 82 83 84 85 85 86 87 88 88 89 90 90 91 91 92 92 92 93 93 93 94 94 95 95 96 96 97 98 98 98 98 98 98 98 98 99 99 100 100 101 102 102 103 104 104 105 105 105 106 106 107 107 108 108 108 109 109 109 109 110 110 111 111 111 111 112 112 112 112 112 112 112 112 111 111 111 110 110 109 109 108 108 107 106
82 83 83 84 84 85 86 87 88 88 89 90 90 91 91 91 92 93 93 93 94 94 95 95 96 96 97 98 99 99 100 100 100 99 99 99 100 100 101 101 102 103 104 104 105 105 106 106 107 107 107 108 108 109 109 109 110 110 110 110 111 111 111 111 112 112 112 112 112 112 112 112 112 112 112 111 111 110 110 109 108 107 107 106 105 105
83 83 84 84 85 86 86 87 88 89 89 90 90 91 91 92 92 93 93 94 94 95 95 96 96 97 98 99 100 101 101 101 101 101 101 101 101 102 102 103 104 105 105 106 107 107 108 108 108 109 109 109 109 110 110 110 111 111 111 111 111 111 112 112 112 112 112 112 112 112 112 112 111 111 111 111 110 109 108 107 106 105 105 104 104 104
83 84 85 85 86 86 87 88 89 89 90 90 91 91 92 92 92 93 93 94 95 95 96 96 97 98 99 100 101 102 103 103 103 102 102 102 103 103 104 105 105 106 107 108 108 109 109 109 110 110 110 110 110 111 111 111 111 111 111 111 111 111 111 111 111 111 112 111 111 111 111 111 110 110 110 109 109 108 106 105 104 103 103 102 102 102
84 84 85 86 86 87 88 88 89 90 91 91 91 92 92 92 93 93 94 94 95 95 96 97 98 99 100 101 102 103 104 104 104 104 104 104 104 105 105 106 107 108 108 109 109 110 110 110 110 110 110 110 111 111 111 111 111 111 111 111 110 110 111 111 110 110 110 110 110 110 109 109 108 108 107 107 106 105 104 103 102 101 101 100 100 100
85 85 86 87 87 88 88 89 90 90 91 92 92 92 93 93 94 94 95 95 96 96 97 98 99 100 101 102 103 104 105 105 105 105 105 105 105 106 106 107 108 109 109 109 110 110 110 110 110 110 110 110 110 110 110 110 110 109 109 109 109 109 109 109 109 108 108 108 108 107 107 106 106 105 104 103 102 101 100 100 99 99 98 98 97 97
86 86 87 87 88 88 89 90 90 91 92 93 93 93 94 94 95 95 95 96 96 97 98 99 100 101 102 103 104 105 106 106 106 106 106 106 106 106 107 108 108 109 109 109 109 109 109 109 109 109 109 109 109 108 108 108 108 107 107 107 107 106 106 106 105 105 105 104 104 103 103 102 101 101 100 99 98 97 96 96 96 95 95 94 94 93
87 88 88 89 89 89 90 91 91 92 93 93 94 94 95 96 96 96 96 97 97 98 99 100 101 102 103 104 105 106 107 107 107 107 107 107 107 107 107 108 108 108 108 108 108 108 108 108 108 107 107 107 106 106 106 105 105 105 104 104 103 103 103 102 102 101 101 100 99 98 98 97 97 96 95 94 93 93 92 92 92 91 91 90 90 89
89 89 90 90 90 90 91 92 93 93 94 95 95 96 96 97 97 98 98 98 99 100 100 101 102 103 104 105 106 107 107 108 108 107 107 107 107 107 107 107 108 108 108 107 107 107 107 106 106 106 105 104 104 103 103 102 102 101 101 100 100 99 99 98 98 97 96 95 94 93 93 92 91 91 90 89 89 88 88 88 88 87 87 86 85 85
91 91 91 91 92 92 92 93 94 94 95 96 97 97 98 98 99 99 100 100 101 101 102 103 103 104 105 106 107 108 108 108 108 108 108 108 107 107 107 107 107 107 106 106 106 106 105 105 104 103 103 102 101 100 99 99 98 97 97 96 96 95 95 94 93 92 91 90 89 88 88 87 87 86 85 85 84 84 84 84 83 83 82 81 81 80
92 92 92 92 93 93 94 94 95 96 96 97 98 99 100 100 100 101 102 102 103 103 104 104 105 105 106 107 108 109 109 109 109 109 109 109 108 108 107 106 106 105 105 105 104 104 104 103 102 101 100 99 98 97 96 95 94 94 93 93 92 91 91 90 89 87 86 85 84 84 83 83 82 82 81 80 80 80 80 80 79 79 78 77 76 76
94 94 94 94 94 95 95 96 97 97 98 99 100 101 102 102 102 102 103 104 104 105 105 106 106 107 107 108 109 109 109 109 109 109 109 109 108 108 107 106 105 104 104 103 103 102 101 100 99 98 97 96 95 94 93 92 91 90 90 89 88 87 86 85 84 83 81 81 80 79 79 78 78 77 77 76 76 76 76 76 75 75 74 73 72 72
95 95 95 96 96 96 97 98 98 99 100 101 101 102 103 104 104 104 105 105 106 106 106 106 107 108 108 108 108 108 108 108 108 108 108 108 107 106 105 104 104 103 102 102 101 100 99 98 97 96 94 93 92 91 89 89 88 87 86 85 84 83 82 80 79 78 77 76 76 75 75 74 74 74 73 73 73 73 73 72 72 71 70 70 69 68
96 97 97 97 98 98 99 99 100 101 101 102 103 104 104 105 105 105 106 106 106 106 106 106 107 107 108 108 108 107 106 106 106 106 106 106 105 104 103 102 102 101 100 100 99 98 97 96 94 93 91 90 88 87 86 85 84 83 82 81 80 79 77 76 75 74 73 72 72 72 71 71 71 70 70 70 70 70 69 69 68 68 67 66 66 65
97 97 98 98 99 99 100 101 101 102 103 103 104 105 105 106 106 106 106 107 107 106 106 106 107 107 107 107 106 105 104 104 103 103 103 103 102 101 100 99 99 99 98 97 96 95 94 92 91 89 87 86 85 84 82 82 81 80 79 77 76 74 73 71 71 70 69 69 68 68 68 68 68 67 67 67 67 67 66 66 65 64 64 63 63 63
98 98 99 99 100 101 101 102 102 103 104 105 105 105 106 106 106 107 107 107 107 106 106 106 106 106 106 105 104 103 101 101 100 100 100 100 99 98 97 97 96 96 95 94 93 92 91 89 87 85 83 82 81 80 79 78 77 76 74 73 71 70 69 68 67 67 66 66 65 65 65 65 65 65 64 64 64 63 63 62 62 61 61 60 60 60
99 99 100 101 102 102 103 103 104 104 105 106 106 106 106 106 106 107 107 107 106 106 105 104 104 104 103 103 103 100 98 98 97 97 96 96 96 95 94 94 93 93 92 91 90 89 87 85 83 81 79 78 77 76 75 74 73 72 71 69 68 67 66 65 65 64 63 63 63 63 63 62 62 62 62 61 61 60 60 59 59 58 58 58 58 57
101 101 102 102 103 104 104 105 105 106 106 106 107 107 107 107 107 107 107 106 106 105 104 103 102 101 100 100 99 98 96 95 94 93 93 93 93 92 91 91 90 89 89 88 86 84 82 80 78 76 75 74 73 72 72 71 70 68 67 66 65 64 64 63 62 61 61 60 60 60 60 60 60 59 59 58 58 57 56 56 55 55 55 55 55 55
102 103 103 104 105 106 106 106 106 107 107 107 107 107 107 107 107 107 106 105 104 103 102 101 100 98 97 97 96 95 93 91 90 90 89 89 89 89 88 87 87 86 85 84 82 80 78 76 74 72 71 70 70 69 69 68 66 65 64 63 62 62 61 60 60 59 58 58 58 58 58 57 57 57 56 55 55 54 54 53 53 53 53 53 52 52
104 105 105 105 106 107 108 108 108 108 108 108 108 107 107 107 106 105 104 103 102 100 99 98 96 95 94 94 93 92 90 88 87 86 85 85 85 85 84 84 83 82 81 80 78 75 73 72 70 69 68 67 67 67 66 65 64 62 61 61 60 59 59 58 57 57 56 56 56 56 56 55 55 54 53 53 52 52 51 51 51 50 50 50 50 49
106 107 107 107 108 108 109 109 109 109 108 108 108 108 107 106 105 104 102 100 99 98 96 95 94 92 92 91 90 89 86 85 83 82 82 81 81 81 81 80 79 79 77 76 73 72 70 68 67 66 65 65 65 64 63 62 60 59 59 58 58 57 56 55 55 54 54 54 54 54 53 53 52 51 51 50 50 49 49 49 48 48 48 48 47 47
108 108 108 109 109 109 110 110 110 109 109 108 108 107 105 104 103 101 99 97 96 94 93 92 91 90 89 88 87 85 83 81 79 78 77 77 77 77 77 76 76 75 73 72 70 68 67 66 65 64 63 63 63 62 61 59 58 57 56 56 55 54 54 53 53 52 52 52 52 52 51 50 50 49 48 48 48 47 47 47 46 46 45 45 45 44
109 109 109 110 110 110 110 110 110 109 108 107 106 105 103 101 99 97 96 94 92 91 90 89 88 87 86 84 83 81 79 77 75 74 73 73 74 74 73 73 72 71 70 69 67 66 65 63 63 62 62 61 61 59 58 57 55 55 54 53 52 52 51 51 50 50 50 50 50 49 49 48 47 46 46 46 46 45 45 45 44 44 43 43 42 42
109 109 110 110 110 110 110 110 109 108 107 105 104 102 100 98 96 94 92 91 89 88 87 85 84 83 82 81 79 77 75 73 71 70 70 70 71 71 70 70 69 68 67 66 65 63 63 62 61 60 60 59 58 57 55 54 53 52 52 51 50 49 49 49 49 48 48 48 47 47 46 45 45 44 44 44 44 43 43 42 42 41 41 41 40 40
109 109 109 109 109 109 109 108 107 105 104 102 101 99 97 95 93 91 89 88 86 85 84 82 81 80 78 77 76 74 72 69 68 67 67 68 68 69 68 67 66 66 65 64 62 61 60 60 59 58 58 57 56 55 53 52 51 50 49 48 48 47 47 47 47 46 46 46 45 44 44 43 43 43 42 42 42 41 41 40 40 39 39 39 38 38
109 109 109 108 108 108 107 106 104 102 100 98 97 95 94 92 90 88 86 84 83 82 80 79 78 76 75 73 72 70 69 67 66 65 65 66 67 67 66 65 64 63 62 61 60 59 58 57 57 56 56 55 54 52 51 50 49 48 47 46 46 46 46 45 45 45 44 44 43 42 42 41 41 41 41 40 40 39 39 38 38 37 37 37 37 37
109 108 108 107 107 106 104 102 100 98 96 94 93 92 90 89 87 86 83 81 80 78 77 75 74 73 71 70 69 67 66 64 63 63 64 64 65 65 64 63 61 61 60 59 58 57 56 55 55 55 54 53 51 50 48 47 46 46 45 45 45 45 45 44 44 43 42 42 41 40 40 40 39 39 39 38 38 37 37 37 36 36 36 35 35 35
108 107 107 106 104 103 101 99 96 94 92 91 89 88 87 86 84 83 81 78 77 75 73 71 70 69 68 67 66 65 63 62 62 62 62 63 63 62 61 60 59 58 57 57 56 55 54 53 53 52 52 51 49 48 46 45 44 44 43 43 43 43 43 43 42 41 41 40 39 39 38 38 38 37 37 37 36 36 35 35 35 34 34 34 34 33
107 106 105 103 102 100 98 95 93 91 89 87 86 85 83 82 81 79 78 76 74 72 70 69 67 66 65 64 64 62 61 60 60 60 61 61 61 60 59 57 56 55 55 54 54 53 52 51 50 50 50 49 47 45 44 43 42 42 42 42 42 42 42 41 41 40 39 38 38 37 37 36 36 36 35 35 35 34 34 33 33 33 32 32 32 32
105 104 102 101 99 97 95 92 90 88 86 84 83 81 80 78 77 76 75 73 72 70 68 67 65 64 63 62 62 61 60 59 58 59 59 59 59 57 56 55 53 52 52 52 52 51 50 49 48 48 47 46 45 43 42 41 40 40 41 41 41 41 40 40 39 38 37 36 36 36 35 35 35 34 34 34 33 33 32 32 32 31 31 31 31 31
102 100 99 97 95 94 92 90 88 86 83 81 79 78 76 75 73 72 72 70 69 68 67 65 64 62 61 60 60 59 58 58 57 57 57 57 56 55 53 52 51 50 49 49 49 49 48 47 46 45 45 44 43 41 40 39 39 39 39 39 39 39 39 38 37 36 35 35 35 34 34 34 33 33 32 32 32 31 31 31 30 30 30 30 30 29
98 96 95 93 92 91 89 88 86 83 81 79 76 75 73 72 70 69 69 68 67 66 65 63 62 61 60 59 58 57 56 56 56 56 55 55 54 52 51 49 48 47 47 47 47 46 46 45 44 43 43 42 41 39 38 38 38 38 38 38 38 37 37 36 35 34 34 34 33 33 33 32 32 31 31 31 30 30 29 29 29 29 29 28 28 28
94 92 91 90 89 87 86 85 83 80 78 76 74 72 70 69 68 67 66 66 65 64 63 62 61 60 58 57 56 55 54 54 54 54 53 52 51 50 48 47 46 45 45 45 45 44 44 43 42 41 41 40 38 37 37 36 36 37 37 36 36 35 35 34 33 33 33 32 32 32 31 31 30 30 30 29 29 28 28 27 27 27 27 27 27 27
90 89 88 86 85 84 83 81 79 77 75 73 71 69 68 67 66 65 64 63 63 62 61 60 59 58 57 56 55 54 53 52 52 51 51 50 48 47 46 44 44 44 43 43 43 42 42 41 40 39 38 37 36 36 35 35 35 35 35 35 34 34 33 33 32 31 31 31 30 30 30 29 29 28 28 27 27 27 26 26 26 25 25 25 25 25
87 86 85 83 82 81 79 78 76 74 72 71 69 67 66 65 64 63 62 62 61 60 59 58 57 56 55 54 53 52 51 50 50 49 48 47 46 44 43 43 42 42 42 42 41 41 40 39 38 38 36 35 35 34 34 34 34 34 34 33 33 32 32 31 31 30 30 30 29 29 28 28 27 27 26 26 25 25 25 24 24 24 24 24 24 24
85 83 82 80 79 77 76 74 73 71 70 68 67 65 64 63 62 61 60 59 59 58 57 56 55 54 53 52 51 50 49 48 47 46 45 44 43 42 42 41 41 41 41 40 40 39 39 38 37 36 35 34 33 32 32 32 32 32 32 32 31 31 30 30 29 29 28 28 28 27 27 26 25 25 24 24 23 23 23 22 22 22 22 22 23 23
82 80 79 77 75 74 72 71 70 68 67 66 65 64 62 61 60 59 58 57 57 56 55 54 53 52 51 50 49 48 47 46 45 44 43 42 41 41 40 40 40 40 39 39 38 38 37 36 35 34 33 32 31 31 30 31 31 31 31 31 30 29 29 28 28 27 27 26 26 25 25 24 24 23 23 22 22 21 21 21 21 21 21 21 21 21
79 77 75 73 72 70 69 68 67 66 65 64 63 62 61 59 58 57 56 55 54 54 53 52 51 50 49 48 47 46 45 44 43 42 41 41 40 39 39 39 39 38 38 37 37 36 35 34 33 32 31 30 29 29 29 29 30 30 30 29 28 28 27 27 26 26 25 25 24 24 23 22 22 21 21 20 20 20 19 20 19 20 20 20 20 19
75 74 72 70 69 68 66 65 64 63 62 62 61 60 59 57 56 55 54 53 52 51 50 49 48 48 47 46 45 44 43 43 42 41 40 39 38 38 38 38 38 37 37 36 35 34 33 32 31 30 29 28 28 27 28 28 28 28 28 28 27 26 26 25 25 24 24 23 22 22 21 20 20 19 19 19 18 18 18 18 18 18 18 18 18 18
72 71 69 68 66 65 64 63 62 61 60 59 59 58 57 55 54 53 52 51 50 49 48 47 46 45 44 44 43 42 42 41 40 40 39 38 37 37 37 36 36 36 35 34 33 32 31 30 29 28 27 27 26 26 26 27 27 27 27 26 26 25 24 24 23 22 22 21 20 20 19 19 18 18 17 17 17 17 17 17 17 17 17 17 17 16
69 68 66 65 64 63 62 61 60 59 58 57 57 56 55 53 52 51 50 48 47 46 45 45 44 43 42 42 41 41 40 40 39 38 37 37 36 36 35 35 35 34 33 32 31 30 29 28 27 26 26 25 25 25 25 25 26 26 25 25 24 23 23 22 21 20 20 19 18 18 17 17 16 16 16 16 16 16 16 16 16 16 16 15 15 15
67 65 64 63 62 61 60 59 58 57 56 55 55 54 53 51 50 49 48 46 45 44 43 42 42 41 41 40 40 39 39 38 38 37 36 35 35 34 34 33 33 32 31 29 29 28 27 26 26 25 24 24 23 23 24 24 24 24 24 23 22 21 20 20 19 18 17 17 16 16 15 15 15 15 15 15 15 15 15 15 15 15 14 14 14 13
64 63 62 61 60 59 58 57 56 55 54 53 53 52 50 49 48 47 45 44 43 42 42 41 40 40 39 39 38 38 38 37 36 35 34 34 33 33 32 31 30 29 28 27 26 26 25 25 24 23 23 23 22 22 22 22 23 22 22 21 20 19 18 18 17 16 15 15 14 14 14 14 14 14 14 14 14 14 14 14 13 13 13 12 12 12
62 61 60 59 58 57 56 55 54 53 52 51 50 49 48 47 46 45 44 42 42 41 40 39 39 38 38 37 37 37 36 35 34 33 33 32 32 31 30 29 28 27 26 25 25 24 24 23 23 22 22 21 21 21 21 21 21 21 20 19 18 17 16 16 15 14 13 13 13 13 13 13 13 13 13 13 13 13 12 12 12 11 11 11 10 10
60 59 58 57 56 55 54 53 52 51 50 49 48 47 46 45 44 43 42 41 40 39 39 38 37 37 37 36 36 35 34 33 33 32 31 30 30 29 28 27 26 25 24 24 23 23 22 22 22 21 21 20 19 19 19 19 19 19 18 17 16 15 14 14 13 13 12 12 12 11 12 12 12 12 12 12 11 11 11 10 10 10 9 9 9 9
58 57 57 56 54 53 52 51 50 49 48 47 46 45 44 43 42 41 40 39 39 38 37 37 36 36 35 34 34 33 32 32 31 30 29 29 28 27 26 24 24 23 23 22 22 21 21 21 20 20 19 18 18 17 17 17 17 16 16 15 14 13 12 12 11 11 11 11 11 11 11 11 11 11 11 10 10 10 9 9 9 8 8 8 7 7
56 55 55 54 53 51 50 49 47 46 45 45 44 43 42 41 40 40 39 38 37 37 36 35 35 34 34 33 32 31 30 30 29 28 27 26 26 24 23 23 22 21 21 21 20 20 20 19 19 18 17 17 16 16 16 15 15 14 13 13 12 11 10 10 10 10 10 10 10 10 10 10 9 9 9 9 8 8 8 7 7 7 6 6 6 6
54 54 53 52 51 50 48 47 45 44 43 42 41 41 40 40 39 38 37 37 36 35 35 34 34 33 32 31 30 29 29 28 27 26 25 24 23 22 22 21 20 20 19 19 19 18 18 18 17 16 16 15 14 14 14 13 13 12 12 11 10 10 9 9 9 9 9 9 9 9 9 8 8 8 7 7 7 6 6 6 5 5 5 5 4 4
53 52 51 50 49 48 47 45 44 42 41 40 40 39 38 38 37 37 36 35 35 34 33 33 32 31 31 30 29 28 27 26 25 24 23 22 21 21 20 20 19 18 18 17 17 17 16 16 15 14 14 13 13 12 12 11 11 10 10 9 9 9 8 8 8 8 8 8 7 7 7 7 6 6 6 5 5 5 4 4 4 4 3 3 3 3
51 50 49 48 47 46 45 44 42 41 40 39 38 38 37 36 36 35 35 34 34 33 32 31 31 30 29 28 27 26 25 24 23 22 21 21 20 19 19 18 17 17 16 16 15 15 14 14 13 12 12 12 11 10 10 9 9 8 8 8 8 8 7 7 7 7 6 6 6 6 5 5 5 5 4 4 3 3 3 2 2 2 2 2 2 3
Wind_Direction
297 297 297 297 297 297 297 297 297 296 296 296 296 296 296 296 296 296 296 295 295 295 295 295 294 294 294 293 293 292 292 292 291 291 291 290 290 290 289 289 288 288 287 287 286 286 286 285 285 285 284 284 284 284 283 283 283 283 283 283 282 282 282 282 282 282 281 281 281 281 281 281 281 281 281 280 280 280 280 279 279 279 279 278 278 278
297 297 297 297 297 297 297 296 296 296 296 296 296 296 296 296 296 296 296 295 295 295 295 295 294 294 294 293 293 292 292 291 291 291 291 290 290 289 289 289 288 288 287 287 286 286 285 285 285 284 284 284 284 284 284 284 284 283 283 283 283 283 283 283 283 282 282 282 282 282 282 282 282 282 281 281 281 281 280 280 280 279 279 279 279 278
298 297 297 297 297 296 296 296 296 296 296 295 295 295 296 296 296 295 295 295 295 295 295 294 294 294 293 293 292 292 292 291 291 291 290 290 290 289 289 288 288 287 287 286 286 286 285 285 285 285 285 284 284 284 284 284 284 284 284 284 284 284 284 283 283 283 283 283 283 283 283 282 282 282 282 281 281 281 280 280 280 280 279 279 279 279
297 297 297 296 296 296 296 296 295 295 295 295 295 295 295 295 295 295 295 295 295 295 294 294 294 294 293 293 292 292 291 291 291 290 290 290 289 289 288 288 287 287 286 286 286 286 285 285 285 285 285 285 285 285 285 285 285 285 284 284 284 284 284 284 284 284 284 283 283 283 283 283 282 282 282 281 281 281 281 280 280 280 280 279 279 278
297 296 296 296 296 296 295 295 295 295 295 295 295 295 295 295 295 294 294 294 294 294 294 294 293 293 293 292 292 291 291 290 290 290 290 289 289 288 288 288 287 287 286 286 286 286 286 286 286 286 285 285 285 285 285 285 285 285 285 285 285 285 285 284 284 284 284 283 283 283 283 283 282 282 282 281 281 281 281 280 280 280 280 279 278 278
296 296 296 296 296 295 295 295 295 295 295 295 295 295 294 294 294 294 294 294 294 293 293 293 293 292 292 292 291 291 290 290 290 290 289 289 289 288 288 287 287 287 286 286 286 286 286 286 286 286 286 286 286 286 286 286 286 285 285 285 285 285 285 284 284 284 284 283 283 283 282 282 282 281 281 281 281 281 281 280 280 280 279 278 278 277
296 296 296 296 295 295 295 295 295 295 295 295 295 294 294 294 294 294 293 294 293 293 293 293 292 292 292 291 291 291 290 290 290 290 289 289 289 288 288 288 287 287 287 287 287 287 287 287 287 287 287 286 286 286 286 286 286 286 285 285 285 285 284 284 284 283 283 283 282 282 282 282 281 281 281 281 281 280 280 280 279 279 278 277 277 276
296 296 296 296 296 296 296 295 295 295 295 295 295 294 294 294 294 294 293 293 293 293 293 292 292 292 291 291 291 290 290 290 290 290 289 289 289 289 288 288 288 287 287 287 287 287 287 287 287 287 287 287 286 286 286 286 286 286 285 285 285 284 284 284 283 283 282 282 282 282 281 281 281 281 281 280 280 280 280 279 278 278 277 276 276 275
297 297 296 296 296 296 296 296 295 295 295 295 295 295 294 294 294 294 294 293 293 293 293 292 292 292 291 291 291 291 290 290 290 290 290 290 289 289 289 289 288 288 288 288 288 288 288 288 288 287 287 287 287 286 286 286 286 286 285 285 285 284 284 283 283 283 282 282 282 282 281 281 281 281 280 280 280 279 279 278 277 277 276 275 275 274
297 297 297 297 297 297 296 296 296 296 296 295 295 295 295 294 294 294 294 294 293 293 293 292 292 292 292 291 291 291 291 291 291 291 291 291 290 290 290 289 289 289 289 289 289 289 289 288 288 288 287 287 287 287 286 286 286 286 285 285 285 284 284 284 283 283 282 282 282 282 282 281 281 281 280 280 279 279 278 277 277 276 276 275 275 274
298 298 298 297 297 297 297 297 296 296 296 296 295 295 295 295 295 294 294 294 294 293 293 293 293 293 293 292 292 292 292 292 292 292 292 292 291 291 291 291 291 291 290 290 290 290 289 289 288 288 288 288 287 287 287 287 286 286 286 286 285 285 284 284 284 283 283 283 283 283 282 282 281 281 280 280 279 278 278 277 277 276 276 275 275 275
298 298 298 298 298 298 297 297 297 297 296 296 296 296 295 295 295 295 295 295 294 294 294 294 294 294 294 293 293 293 293 293 293 293 293 293 293 292 292 292 292 292 291 291 291 290 290 289 289 289 288 288 288 288 288 288 287 287 287 286 286 285 285 285 284 284 284 284 284 283 283 282 281 281 280 280 279 278 278 277 277 276 276 276 276 276
299 299 299 299 299 298 298 298 298 297 297 297 297 296 296 296 296 296 295 295 295 295 295 295 295 295 294 294 294 294 294 294 294 294 294 294 293 293 293 293 293 292 292 291 291 290 290 290 289 289 289 289 289 289 289 289 288 288 287 287 286 286 285 285 285 285 285 285 284 283 283 282 281 281 280 280 279 278 278 277 277 277 277 277 276 276
300 300 300 300 299 299 299 298 298 298 298 297 297 297 296 296 296 296 296 296 295 296 295 295 295 295 295 295 294 294 294 294 294 294 294 294 294 293 293 293 293 292 292 292 291 291 290 290 290 290 290 290 290 290 290 289 289 288 288 287 287 286 286 286 286 286 285 285 284 283 282 282 281 281 280 279 279 278 278 278 278 278 277 277 277 277
300 300 300 300 300 299 299 299 298 298 298 297 297 297 296 296 296 296 296 296 296 296 296 296 295 295 295 295 294 294 295 294 294 294 294 294 294 293 293 293 293 292 292 291 291 291 291 290 290 290 291 291 291 290 290 290 289 288 288 287 287 287 287 287 286 286 285 284 284 283 282 282 281 280 280 279 279 278 278 278 278 278 278 278 277 277
300 300 300 300 300 299 299 299 298 298 297 297 297 296 296 296 296 296 296 296 296 296 296 296 296 296 295 295 295 295 295 295 294 294 294 294 294 293 293 293 292 292 292 291 291 291 291 291 291 291 291 291 291 291 290 289 289 288 288 287 287 287 287 287 286 285 285 284 283 283 282 281 281 280 280 279 279 279 278 278 278 278 278 278 277 276
300 300 300 300 299 299 299 298 298 297 297 297 297 297 297 297 297 297 297 297 297 297 297 297 297 296 296 296 295 295 295 295 295 294 294 294 293 293 293 293 292 292 291 291 291 290 291 291 291 291 292 291 291 291 290 289 289 288 288 288 288 288 287 287 286 285 285 284 283 283 282 281 281 280 279 279 279 279 279 279 279 278 278 277 277 276
301 301 300 300 299 299 299 298 298 298 297 297 297 297 298 298 298 298 298 298 298 298 298 298 297 297 296 296 296 295 295 295 295 294 294 294 293 293 293 292 292 292 291 291 290 291 291 291 292 292 292 291 291 290 290 289 288 288 288 288 288 288 287 287 286 285 285 284 283 282 281 281 280 280 280 279 279 279 279 279 278 278 277 277 276 276
301 301 300 300 300 299 299 299 298 298 298 298 298 299 299 299 299 299 299 299 299 299 298 298 298 297 297 296 296 295 295 295 294 294 294 294 293 293 292 292 292 291 291 290 290 291 291 292 292 292 292 291 291 290 289 289 289 289 289 289 289 288 287 287 286 285 285 284 283 282 281 281 281 280 280 280 279 279 279 278 278 277 277 276 276 275
302 301 301 300 300 300 299 299 299 299 299 299 299 300 300 300 300 300 299 299 299 299 299 298 298 297 297 296 295 295 295 294 294 294 294 293 293 293 293 292 292 291 291 290 291 291 292 292 292 292 292 291 291 290 289 289 289 290 290 289 289 288 288 287 286 286 285 284 283 282 282 281 281 281 280 280 280 279 279 278 278 277 277 276 276 276
302 301 301 301 300 300 300 300 300 300 300 300 300 300 300 300 300 300 300 300 300 299 299 298 298 297 297 296 295 295 295 295 295 294 294 294 293 293 292 292 291 291 291 291 291 292 292 293 292 292 292 291 291 290 290 290 290 290 290 290 289 288 288 287 287 286 285 284 283 283 282 281 281 281 281 281 280 280 279 278 278 277 277 276 276 276
302 302 302 301 301 301 301 301 301 301 301 301 301 301 301 301 301 301 300 300 300 299 299 298 298 297 297 296 295 295 295 295 295 295 295 294 293 293 292 292 291 291 291 291 292 293 293 293 293 292 292 291 291 290 290 290 291 291 290 289 289 289 288 288 287 286 285 284 283 282 282 282 282 281 281 281 280 280 279 278 278 278 277 277 277 277
302 302 302 302 302 302 301 302 302 302 302 302 302 301 301 301 301 301 301 300 300 299 299 298 298 297 296 296 295 295 295 295 295 295 295 294 293 293 292 292 291 291 292 292 293 293 293 293 293 293 292 291 291 290 291 291 291 291 290 289 289 289 288 287 287 286 285 284 283 283 282 282 282 282 281 281 280 279 279 279 278 278 278 278 278 277
302 302 302 302 302 302 302 302 302 302 302 302 302 302 302 301 301 301 300 300 299 299 298 298 297 297 296 296 295 295 296 296 296 296 295 294 293 292 292 292 292 292 292 293 293 294 294 294 293 293 292 291 291 291 292 292 292 291 290 290 289 289 288 287 286 285 284 283 283 282 283 283 282 282 281 280 280 279 279 279 279 279 278 278 278 277
302 302 302 302 302 302 302 302 302 302 302 302 302 302 302 301 301 301 300 300 299 299 298 298 297 297 297 296 296 296 297 297 297 296 296 295 293 292 292 292 292 293 293 294 294 294 294 294 294 293 292 292 292 292 292 292 292 291 291 290 290 289 288 287 286 285 284 283 283 283 283 282 282 281 281 280 280 279 279 279 279 279 279 278 278 277
302 302 302 302 302 302 302 302 302 302 303 303 302 302 302 301 301 301 300 300 300 299 299 298 298 298 297 297 297 297 297 297 297 297 296 295 293 293 292 293 293 293 294 294 294 295 294 294 294 293 293 292 292 293 293 293 292 292 291 290 290 289 287 286 285 284 284 283 283 283 283 282 282 281 280 280 280 280 280 280 279 279 279 278 278 277
302 302 302 302 302 302 302 302 302 303 303 303 302 302 302 301 301 301 300 300 300 300 299 299 298 298 298 298 298 298 298 298 298 297 296 294 293 293 293 293 294 294 295 295 295 295 295 294 294 293 293 293 293 293 293 293 293 292 292 291 290 289 287 286 285 284 284 284 283 283 283 282 281 281 280 280 280 280 280 280 280 279 279 278 277 277
303 303 303 303 303 303 303 303 303 303 303 303 302 302 302 302 301 301 301 300 300 300 299 299 299 299 299 299 298 298 298 298 297 296 295 294 293 293 293 294 294 295 295 295 295 295 295 294 294 293 293 293 293 293 293 293 293 293 292 291 290 288 287 286 285 285 284 284 284 283 282 282 281 281 281 281 281 281 280 280 280 279 279 278 277 276
303 303 303 303 303 303 303 303 303 303 303 303 302 302 302 302 302 301 301 301 300 300 300 299 299 299 299 299 299 298 298 298 297 296 294 293 293 293 294 295 295 296 296 296 295 295 294 294 294 293 293 293 293 294 294 294 294 293 292 290 289 288 287 286 285 285 285 284 284 283 283 282 282 281 281 281 281 281 281 280 280 279 278 277 277 276
304 304 304 304 304 304 304 304 304 303 303 303 303 302 302 302 302 302 302 301 301 301 300 300 300 299 299 299 299 298 298 297 297 295 294 293 293 294 295 295 296 296 296 296 295 295 294 294 294 293 293 293 294 294 294 294 294 293 291 290 288 287 287 286 286 285 285 285 284 283 283 282 282 282 282 281 281 281 281 280 280 279 278 277 276 275
304 304 304 304 304 304 304 304 304 304 303 303 303 303 303 303 302 302 302 302 301 301 301 300 300 300 299 299 299 298 298 297 296 295 294 294 294 295 295 296 296 296 296 295 294 294 294 294 293 293 293 293 294 294 295 294 293 292 290 289 288 287 286 286 286 286 285 285 284 283 283 283 282 282 282 282 281 281 281 280 279 279 278 277 276 275
305 305 305 305 305 305 304 304 304 304 304 304 303 303 303 303 303 302 302 302 301 301 301 301 300 300 300 299 299 298 298 297 296 295 295 294 295 295 296 297 297 296 295 294 294 293 293 293 293 293 293 294 294 295 295 294 293 291 289 288 287 286 286 286 286 286 285 285 284 283 283 283 283 282 282 282 282 281 281 280 279 278 277 276 275 274
305 305 305 305 305 305 305 304 304 304 304 304 304 304 304 303 303 303 302 302 301 301 301 301 301 300 300 299 299 298 298 297 296 295 295 295 296 296 297 297 297 296 295 294 293 293 293 293 294 294 294 294 295 295 295 293 291 290 288 287 286 286 285 285 285 285 285 284 283 283 283 283 283 282 282 282 282 281 280 280 279 278 277 276 274 273
306 306 306 305 305 305 305 304 304 304 304 304 304 304 304 304 303 303 302 302 301 301 301 301 301 300 300 300 299 298 298 297 296 296 296 296 296 297 297 297 296 295 294 293 293 293 293 294 294 294 294 295 295 295 294 292 290 288 287 286 285 285 285 285 284 284 284 283 283 283 283 283 283 283 282 282 281 281 280 280 278 277 276 275 274 273
306 306 306 306 305 305 305 305 305 305 305 305 305 304 304 304 303 303 302 302 302 301 301 301 301 301 300 300 299 298 298 297 296 296 296 297 297 297 297 297 296 295 294 293 293 293 294 294 294 294 295 295 295 294 293 291 289 287 286 285 285 285 284 284 284 284 283 283 283 283 283 283 283 283 283 282 282 281 280 279 278 277 276 274 273 272
307 306 306 306 305 305 305 305 305 305 305 305 305 304 304 304 303 303 302 302 302 301 301 301 301 301 300 300 299 298 298 297 297 297 297 297 297 297 297 296 295 294 294 294 293 294 294 294 295 295 295 295 295 293 291 289 287 286 285 285 284 284 284 284 284 284 284 283 284 284 284 284 284 284 283 282 282 281 280 279 277 276 275 274 273 272
307 307 306 306 306 305 305 305 305 305 305 305 305 305 304 304 303 303 302 302 302 301 301 301 301 301 300 300 299 299 298 298 297 297 297 297 297 297 296 295 295 294 294 294 294 294 294 295 295 295 295 295 294 292 289 288 286 285 285 284 284 284 284 284 284 284 284 284 285 285 285 285 285 284 283 282 281 280 279 278 276 275 274 273 272 271
307 307 306 306 306 305 305 305 305 305 305 305 305 304 304 304 303 303 302 302 302 302 301 301 301 301 300 300 299 299 298 298 298 298 297 297 297 297 296 295 295 294 294 294 294 294 294 295 295 295 294 293 292 290 288 286 285 284 284 284 284 284 284 284 285 285 285 285 286 286 286 285 285 284 283 282 281 280 278 277 275 273 273 272 271 271
307 306 306 306 306 305 305 305 305 305 305 305 304 304 304 304 303 303 303 302 302 302 302 301 301 301 300 300 299 299 298 298 298 297 297 297 297 296 296 295 294 294 294 294 294 294 295 294 294 294 293 292 290 288 286 285 284 284 284 284 284 284 285 285 285 286 286 286 286 287 286 286 285 284 283 282 280 279 277 275 274 273 272 271 271 271
307 306 306 306 306 306 305 305 305 305 305 305 304 304 304 304 304 303 303 303 302 302 302 302 301 301 300 300 299 299 299 298 298 297 297 297 297 296 296 295 294 294 294 294 294 294 294 294 293 293 292 290 288 286 285 284 283 283 284 284 284 284 285 286 286 287 287 287 287 287 287 286 285 284 282 280 279 277 276 274 273 272 271 271 271 271
307 306 306 306 306 306 306 306 305 305 305 305 304 304 304 304 304 304 303 303 303 302 302 302 301 301 300 300 299 299 299 298 298 298 297 298 297 296 296 294 294 293 294 294 294 294 294 293 292 291 290 288 287 285 284 283 283 283 283 284 284 285 286 286 287 287 288 288 288 287 287 285 284 283 281 279 277 275 274 272 272 271 271 271 271 271
307 307 306 306 306 306 306 306 306 305 305 305 305 305 304 304 304 304 304 304 303 303 302 302 301 301 300 300 299 299 299 298 298 298 298 298 298 296 295 294 294 294 294 294 294 294 292 292 291 290 288 287 285 284 283 283 283 283 284 284 285 286 287 287 288 288 288 288 288 287 286 284 283 281 279 277 275 273 272 271 271 271 271 271 271 271
307 307 307 306 306 306 307 306 306 306 306 305 305 305 305 305 305 305 304 304 304 303 303 302 301 301 301 300 300 299 299 299 299 299 299 298 297 296 295 294 294 294 294 294 294 293 292 291 289 288 287 286 285 284 283 283 283 284 285 285 286 287 288 289 290 289 289 288 287 286 284 282 280 278 276 274 273 271 271 271 271 271 271 271 272 271
307 307 307 307 307 307 307 307 307 306 306 306 306 306 306 306 305 305 305 304 304 304 303 302 302 301 301 301 300 300 300 300 300 300 299 298 297 295 295 295 295 295 295 294 293 292 291 290 289 287 287 286 285 284 283 283 283 284 285 287 288 289 290 291 291 290 289 287 285 283 281 279 277 275 273 271 271 271 271 271 272 272 272 271 271 270
307 307 307 307 307 307 307 307 307 307 307 306 306 306 306 306 306 306 305 305 305 304 304 303 303 302 302 302 302 302 301 301 301 300 299 298 296 296 296 296 296 295 295 293 292 291 290 289 288 287 286 286 285 284 284 284 284 285 286 288 290 291 291 291 290 289 287 285 282 280 278 275 273 272 271 270 270 271 271 271 272 272 271 271 270 269
308 308 308 308 308 308 308 308 308 308 307 307 307 307 307 307 306 306 306 306 305 305 304 304 304 304 304 303 303 303 303 302 301 300 299 298 297 297 297 297 296 295 294 292 291 290 289 288 287 287 287 287 286 286 285 285 285 286 288 290 291 291 291 290 288 287 284 281 279 276 275 273 271 270 269 269 269 271 271 271 271 271 270 269 269 268
308 308 308 308 308 308 309 309 308 308 308 308 308 308 308 307 307 307 307 306 306 306 306 306 305 305 305 305 304 304 303 302 301 300 299 298 298 298 298 297 295 294 293 291 291 290 289 288 288 288 287 287 287 286 285 285 286 288 289 291 291 291 290 289 286 283 280 278 276 274 272 271 270 269 269 269 270 271 271 271 270 270 269 269 269 269
309 309 309 309 309 309 309 309 309 309 308 308 308 308 308 308 308 308 308 307 307 307 307 307 307 307 306 305 305 304 303 302 301 300 300 299 299 298 298 296 295 293 292 291 290 289 289 288 288 288 288 288 287 286 285 286 287 288 290 290 291 290 287 284 281 279 277 276 274 272 272 271 270 270 270 270 271 271 271 271 271 270 271 271 269 267
309 309 309 309 310 310 310 310 309 309 309 309 309 309 309 309 309 309 309 309 309 309 309 309 308 308 307 306 306 305 304 303 302 301 300 300 299 298 296 295 293 292 291 291 290 289 289 289 289 289 289 287 286 285 285 286 287 288 289 290 289 286 282 279 277 276 275 274 274 272 272 272 271 271 271 271 271 271 272 272 272 272 272 271 267 263
310 310 310 310 310 310 310 310 310 310 310 310 310 310 309 310 310 310 310 310 310 310 310 309 309 309 308 307 306 305 304 304 303 302 301 299 298 297 295 293 292 292 291 290 290 290 290 290 289 289 287 286 285 284 286 287 288 288 288 286 283 280 277 274 274 274 274 274 274 274 275 273 273 272 272 272 271 271 272 272 272 271 267 264 259 255
311 311 311 311 311 311 311 311 311 311 311 311 311 311 311 311 311 311 311 311 311 311 311 310 310 309 308 308 307 306 305 304 303 302 300 298 297 295 294 293 292 292 291 291 291 290 291 290 289 288 286 285 285 285 286 287 288 287 284 281 278 275 273 272 273 275 276 276 276 276 274 273 273 272 272 271 268 267 267 267 264 260 255 252 249 245
Height
10408 10405 10402 10399 10396 10392 10388 10385 10382 10378 10374 10371 10368 10365 10362 10359 10357 10354 10353 10350 10348 10345 10342 10339 10337 10334 10331 10328 10325 10322 10320 10318 10317 10315 10314 10311 10309 10307 10304 10302 10299 10296 10294 10291 10288 10286 10283 10281 10279 10277 10274 10273 10271 10269 10267 10265 10263 10261 10259 10258 10256 10254 10252 10250 10248 10246 10244 10242 10240 10238 10236 10234 10233 10231 10230 10229 10228 10226 10225 10225 10225 10224 10224 10223 10223 10223
10402 10399 10396 10393 10390 10386 10382 10379 10376 10373 10368 10364 10362 10359 10356 10353 10350 10347 10344 10342 10339 10337 10334 10331 10329 10326 10323 10319 10316 10313 10311 10309 10308 10306 10305 10303 10301 10298 10295 10293 10289 10287 10284 10281 10278 10275 10273 10271 10268 10266 10264 10263 10260 10258 10256 10254 10253 10251 10249 10247 10245 10243 10241 10239 10237 10235 10233 10231 10229 10226 10224 10223 10221 10220 10218 10217 10216 10214 10213 10213 10213 10213 10213 10212 10212 10212
10395 10392 10389 10387 10384 10380 10376 10373 10369 10366 10363 10359 10356 10353 10351 10348 10344 10341 10338 10334 10332 10329 10327 10324 10321 10318 10314 10311 10307 10304 10301 10299 10298 10298 10296 10294 10291 10289 10286 10283 10280 10277 10274 10271 10268 10265 10263 10260 10258 10256 10254 10252 10250 10248 10246 10244 10242 10240 10238 10236 10234 10233 10230 10228 10226 10224 10221 10219 10217 10215 10213 10211 10210 10208 10207 10205 10203 10203 10201 10201 10201 10201 10201 10201 10201 10201
10389 10386 10383 10380 10378 10374 10371 10367 10363 10359 10356 10353 10350 10347 10344 10341 10338 10334 10331 10329 10325 10322 10319 10316 10313 10310 10306 10302 10298 10295 10293 10291 10289 10288 10287 10285 10283 10279 10276 10273 10270 10267 10264 10260 10258 10254 10252 10250 10248 10246 10244 10242 10240 10238 10236 10234 10232 10230 10228 10226 10224 10221 10219 10217 10215 10213 10210 10208 10206 10204 10202 10200 10199 10197 10195 10193 10191 10190 10190 10190 10190 10191 10191 10191 10191 10189
10384 10380 10377 10374 10371 10368 10364 10361 10357 10353 10349 10346 10344 10341 10338 10335 10332 10329 10326 10323 10319 10316 10313 10309 10306 10303 10298 10294 10289 10286 10283 10281 10280 10279 10278 10276 10273 10270 10267 10263 10260 10257 10253 10250 10247 10244 10242 10240 10238 10236 10234 10232 10230 10228 10226 10224 10222 10219 10218 10215 10213 10211 10209 10206 10204 10202 10199 10197 10195 10193 10191 10189 10188 10186 10184 10182 10180 10179 10179 10179 10179 10180 10180 10179 10179 10178
10378 10374 10371 10368 10364 10361 10358 10354 10350 10346 10343 10339 10337 10334 10331 10328 10325 10322 10319 10316 10313 10309 10306 10303 10299 10294 10291 10286 10281 10278 10274 10272 10271 10269 10268 10266 10263 10260 10257 10253 10250 10246 10243 10240 10237 10234 10233 10230 10228 10226 10224 10222 10220 10218 10216 10213 10211 10209 10208 10205 10203 10201 10198 10196 10193 10191 10189 10186 10184 10182 10180 10178 10177 10175 10173 10171 10170 10169 10169 10169 10169 10169 10169 10168 10167 10166
10371 10368 10364 10361 10358 10354 10351 10348 10344 10339 10336 10332 10329 10327 10324 10321 10318 10314 10311 10309 10306 10302 10298 10294 10291 10287 10283 10278 10273 10269 10265 10263 10261 10259 10258 10256 10254 10251 10247 10243 10239 10236 10233 10230 10228 10225 10223 10221 10219 10217 10214 10212 10210 10208 10206 10204 10201 10199 10198 10195 10193 10190 10188 10186 10183 10181 10178 10176 10174 10172 10170 10168 10166 10164 10163 10161 10161 10161 10161 10160 10159 10158 10158 10156 10155 10154
10363 10360 10357 10354 10350 10347 10344 10341 10337 10333 10328 10324 10321 10319 10316 10313 10309 10307 10304 10301 10298 10294 10290 10286 10282 10278 10274 10269 10264 10260 10256 10253 10251 10250 10248 10246 10243 10241 10237 10233 10229 10226 10223 10220 10218 10216 10214 10211 10209 10207 10204 10203 10200 10198 10196 10194 10192 10189 10187 10185 10183 10180 10178 10175 10173 10170 10168 10166 10164 10162 10160 10158 10157 10155 10154 10153 10152 10151 10151 10149 10148 10147 10146 10145 10144 10144
10356 10352 10349 10346 10343 10340 10336 10332 10328 10325 10321 10317 10313 10310 10307 10303 10300 10298 10296 10293 10289 10285 10281 10278 10273 10269 10264 10261 10256 10251 10247 10243 10241 10239 10238 10236 10233 10229 10226 10223 10219 10216 10213 10211 10208 10206 10204 10201 10199 10196 10194 10192 10190 10188 10186 10184 10182 10179 10177 10174 10172 10169 10167 10164 10162 10160 10158 10156 10154 10153 10151 10149 10148 10146 10144 10143 10143 10142 10141 10139 10138 10136 10135 10134 10134 10133
10347 10344 10341 10338 10335 10333 10329 10324 10319 10316 10313 10309 10305 10301 10299 10295 10291 10288 10286 10283 10280 10276 10273 10268 10264 10260 10255 10250 10246 10242 10238 10234 10231 10229 10228 10226 10223 10219 10216 10212 10209 10206 10203 10200 10198 10195 10193 10190 10188 10186 10184 10182 10180 10178 10176 10174 10171 10169 10166 10164 10161 10159 10156 10154 10152 10149 10148 10146 10145 10143 10142 10140 10138 10136 10135 10134 10133 10132 10131 10129 10127 10126 10125 10124 10124 10124
10338 10335 10333 10329 10326 10324 10321 10316 10312 10308 10304 10300 10296 10292 10289 10286 10284 10280 10276 10272 10269 10266 10263 10259 10255 10251 10246 10240 10234 10230 10228 10225 10221 10218 10215 10213 10211 10208 10204 10201 10198 10196 10193 10190 10187 10183 10181 10178 10176 10174 10173 10171 10169 10168 10166 10163 10161 10159 10156 10154 10151 10148 10146 10143 10141 10140 10139 10138 10136 10134 10133 10131 10129 10127 10126 10124 10123 10122 10121 10119 10117 10116 10116 10116 10116 10116
10329 10326 10323 10321 10318 10314 10311 10307 10303 10299 10296 10291 10286 10282 10278 10275 10274 10271 10267 10262 10258 10255 10252 10248 10244 10240 10237 10232 10225 10219 10216 10214 10211 10208 10204 10200 10197 10194 10193 10190 10188 10184 10183 10179 10176 10172 10169 10167 10166 10163 10161 10161 10159 10157 10155 10153 10151 10148 10146 10143 10141 10138 10136 10134 10132 10131 10130 10129 10127 10126 10123 10121 10119 10118 10116 10116 10114 10113 10111 10110 10109 10108 10108 10108 10109 10109
10320 10318 10314 10311 10308 10305 10301 10297 10293 10289 10285 10281 10278 10273 10268 10264 10262 10260 10257 10253 10249 10245 10243 10239 10234 10229 10226 10222 10217 10211 10208 10204 10202 10198 10194 10189 10185 10183 10181 10179 10176 10173 10171 10168 10164 10161 10158 10156 10155 10153 10151 10150 10149 10147 10145 10143 10141 10138 10136 10133 10131 10128 10127 10125 10124 10123 10122 10121 10118 10116 10114 10113 10111 10109 10108 10107 10106 10104 10103 10102 10101 10101 10101 10101 10102 10103
10311 10308 10305 10302 10298 10295 10291 10288 10283 10279 10275 10271 10268 10263 10259 10255 10252 10249 10246 10243 10239 10236 10234 10231 10226 10220 10216 10211 10207 10203 10199 10197 10194 10189 10184 10179 10175 10172 10171 10169 10165 10161 10159 10157 10153 10149 10147 10146 10145 10143 10142 10141 10139 10138 10136 10134 10131 10129 10126 10124 10121 10120 10119 10118 10117 10116 10114 10112 10110 10108 10106 10104 10103 10101 10100 10099 10098 10097 10096 10094 10094 10094 10094 10094 10094 10095
10303 10299 10296 10292 10289 10286 10282 10278 10274 10270 10266 10262 10258 10254 10250 10246 10243 10240 10238 10234 10229 10226 10224 10221 10217 10212 10207 10203 10198 10194 10192 10189 10185 10181 10176 10171 10166 10163 10161 10159 10156 10151 10148 10146 10143 10140 10138 10137 10136 10134 10133 10132 10131 10129 10127 10124 10122 10119 10117 10115 10113 10113 10112 10111 10109 10108 10106 10104 10102 10100 10098 10097 10095 10094 10093 10091 10091 10089 10089 10088 10088 10088 10088 10088 10088 10088
10295 10292 10288 10284 10280 10276 10273 10269 10266 10261 10257 10253 10249 10246 10242 10238 10234 10230 10228 10224 10221 10218 10215 10211 10208 10203 10197 10192 10188 10186 10185 10183 10177 10171 10168 10163 10158 10153 10151 10151 10147 10142 10139 10136 10134 10131 10129 10128 10128 10126 10126 10124 10123 10120 10118 10116 10113 10111 10109 10107 10106 10106 10105 10104 10102 10100 10098 10096 10094 10093 10091 10090 10088 10087 10086 10084 10084 10083 10083 10082 10082 10082 10082 10082 10081 10081
10288 10284 10280 10276 10271 10268 10264 10260 10256 10252 10248 10243 10239 10236 10233 10229 10225 10221 10218 10214 10211 10208 10205 10202 10198 10194 10188 10182 10177 10174 10174 10174 10169 10164 10159 10155 10149 10145 10143 10141 10138 10134 10130 10127 10124 10123 10121 10121 10120 10119 10118 10116 10114 10112 10109 10107 10104 10103 10101 10101 10100 10099 10098 10096 10094 10093 10091 10089 10088 10086 10084 10083 10081 10080 10079 10078 10078 10078 10077 10077 10077 10076 10076 10076 10075 10074
10278 10275 10271 10266 10261 10258 10254 10251 10246 10241 10237 10233 10230 10226 10223 10219 10216 10212 10208 10204 10201 10198 10194 10191 10188 10184 10179 10174 10168 10164 10163 10164 10161 10156 10151 10147 10141 10136 10134 10132 10129 10125 10122 10119 10116 10115 10114 10114 10113 10112 10111 10109 10106 10104 10101 10099 10097 10096 10095 10094 10093 10092 10090 10089 10087 10086 10084 10083 10081 10079 10078 10076 10075 10074 10073 10073 10072 10072 10071 10071 10071 10071 10070 10069 10069 10068
10268 10264 10261 10256 10251 10246 10243 10239 10236 10232 10227 10223 10219 10216 10213 10209 10205 10201 10198 10194 10191 10188 10184 10181 10178 10173 10169 10164 10159 10155 10154 10154 10151 10148 10143 10139 10133 10128 10125 10123 10120 10117 10113 10111 10109 10108 10108 10107 10106 10105 10103 10101 10099 10096 10094 10092 10090 10089 10089 10088 10087 10085 10083 10081 10080 10079 10078 10076 10074 10073 10071 10070 10069 10068 10068 10067 10067 10066 10066 10066 10066 10065 10064 10064 10063 10063
10257 10253 10250 10246 10241 10236 10231 10227 10224 10221 10217 10213 10209 10206 10203 10199 10195 10191 10188 10184 10181 10178 10174 10171 10168 10163 10159 10154 10150 10146 10145 10144 10143 10139 10135 10131 10126 10121 10117 10114 10111 10108 10105 10103 10102 10101 10101 10101 10099 10098 10096 10094 10091 10089 10087 10085 10084 10084 10083 10082 10080 10078 10076 10075 10074 10073 10071 10069 10068 10066 10065 10064 10063 10063 10063 10062 10061 10061 10061 10061 10060 10059 10059 10058 10058 10058
10245 10241 10238 10234 10231 10226 10220 10216 10212 10209 10206 10203 10200 10196 10192 10189 10186 10182 10178 10174 10171 10168 10164 10161 10157 10153 10149 10145 10141 10137 10136 10136 10134 10131 10127 10123 10118 10113 10109 10107 10103 10100 10098 10096 10096 10096 10095 10094 10093 10091 10089 10087 10084 10083 10081 10079 10079 10078 10077 10075 10073 10071 10070 10069 10068 10066 10064 10063 10061 10060 10059 10058 10058 10058 10057 10057 10056 10056 10056 10055 10054 10054 10054 10054 10054 10053
10234 10229 10226 10222 10219 10214 10210 10206 10201 10198 10195 10193 10190 10186 10183 10179 10176 10172 10168 10165 10162 10158 10154 10151 10147 10143 10140 10136 10131 10129 10128 10128 10126 10123 10119 10115 10110 10106 10103 10099 10096 10093 10091 10090 10089 10089 10089 10088 10086 10084 10083 10080 10078 10076 10074 10074 10073 10073 10071 10069 10068 10066 10064 10063 10062 10060 10059 10057 10056 10054 10054 10053 10053 10053 10053 10052 10051 10051 10051 10050 10049 10049 10049 10050 10049 10049
10223 10219 10215 10211 10208 10204 10199 10196 10191 10188 10185 10182 10179 10176 10173 10169 10166 10163 10159 10156 10153 10149 10145 10142 10138 10134 10131 10127 10123 10121 10120 10119 10118 10116 10113 10108 10103 10098 10095 10092 10089 10087 10085 10084 10084 10083 10082 10081 10079 10078 10076 10074 10071 10070 10069 10069 10068 10067 10065 10063 10062 10061 10059 10058 10056 10054 10053 10051 10050 10049 10049 10049 10048 10048 10048 10047 10046 10046 10046 10045 10045 10045 10045 10045 10045 10045
10214 10210 10206 10202 10198 10194 10190 10186 10182 10179 10176 10173 10169 10165 10162 10159 10156 10154 10151 10148 10144 10141 10137 10133 10129 10125 10121 10118 10116 10113 10113 10112 10111 10108 10104 10100 10095 10091 10088 10086 10083 10081 10079 10079 10078 10077 10076 10074 10073 10071 10069 10067 10065 10064 10064 10063 10063 10061 10059 10058 10056 10055 10054 10052 10051 10049 10048 10046 10046 10045 10044 10044 10044 10044 10043 10043 10042 10041 10041 10041 10041 10041 10041 10041 10041 10041
10206 10202 10198 10194 10190 10186 10181 10178 10174 10171 10168 10164 10160 10156 10152 10149 10146 10144 10141 10138 10135 10131 10128 10124 10121 10117 10113 10110 10108 10106 10104 10104 10103 10100 10096 10092 10088 10084 10081 10079 10078 10076 10074 10073 10073 10071 10070 10068 10067 10065 10063 10061 10059 10059 10059 10058 10057 10055 10054 10053 10051 10050 10048 10047 10045 10044 10043 10042 10041 10041 10041 10040 10039 10039 10039 10038 10038 10037 10038 10038 10037 10037 10037 10037 10036 10036
10199 10195 10191 10187 10182 10178 10174 10169 10166 10163 10159 10156 10152 10148 10144 10140 10136 10134 10131 10129 10126 10123 10119 10115 10112 10109 10106 10103 10100 10098 10097 10096 10095 10093 10089 10084 10081 10078 10075 10074 10073 10071 10069 10068 10067 10066 10064 10063 10061 10059 10057 10055 10054 10054 10053 10053 10051 10050 10049 10048 10046 10044 10043 10041 10040 10039 10038 10038 10037 10037 10036 10036 10036 10035 10034 10034 10034 10034 10034 10034 10034 10034 10034 10033 10033 10033
10190 10186 10183 10179 10174 10169 10165 10161 10158 10155 10152 10148 10144 10139 10136 10133 10129 10125 10122 10120 10118 10115 10111 10108 10104 10102 10099 10096 10094 10092 10091 10089 10088 10086 10083 10078 10074 10071 10069 10069 10068 10066 10064 10062 10061 10060 10059 10057 10055 10053 10051 10050 10049 10049 10049 10048 10046 10045 10044 10043 10041 10039 10038 10036 10035 10034 10034 10033 10033 10033 10033 10032 10031 10031 10031 10031 10031 10031 10031 10031 10031 10030 10029 10029 10029 10029
10181 10178 10174 10169 10165 10161 10157 10153 10150 10148 10144 10140 10135 10131 10128 10125 10121 10118 10114 10113 10111 10108 10104 10101 10098 10095 10093 10090 10088 10086 10084 10083 10081 10079 10075 10071 10068 10066 10064 10063 10063 10061 10059 10057 10055 10054 10053 10052 10050 10048 10046 10045 10045 10044 10044 10043 10042 10041 10039 10038 10036 10034 10033 10031 10031 10030 10030 10029 10029 10029 10029 10028 10028 10028 10027 10028 10028 10028 10028 10028 10028 10026 10026 10026 10025 10025
10173 10169 10165 10161 10156 10152 10148 10144 10142 10139 10136 10132 10128 10123 10119 10116 10113 10109 10107 10105 10103 10099 10096 10094 10092 10089 10086 10084 10082 10080 10078 10077 10075 10072 10069 10065 10063 10061 10060 10059 10058 10056 10054 10052 10050 10049 10048 10047 10045 10043 10041 10041 10040 10040 10039 10039 10038 10036 10034 10033 10031 10029 10028 10027 10027 10026 10026 10026 10026 10025 10024 10024 10024 10024 10024 10024 10024 10024 10023 10023 10023 10023 10023 10022 10022 10021
10163 10159 10155 10151 10147 10143 10139 10136 10133 10130 10127 10124 10120 10116 10112 10108 10105 10101 10098 10096 10094 10091 10089 10087 10085 10083 10081 10078 10076 10074 10073 10071 10069 10066 10063 10059 10057 10056 10056 10054 10053 10052 10050 10048 10045 10043 10043 10043 10041 10039 10037 10036 10036 10036 10036 10034 10033 10031 10029 10028 10026 10024 10024 10023 10023 10023 10023 10022 10022 10021 10021 10021 10021 10020 10020 10020 10020 10019 10019 10019 10019 10019 10019 10018 10018 10018
10156 10151 10146 10141 10138 10133 10129 10126 10124 10121 10118 10116 10113 10109 10105 10102 10098 10095 10091 10089 10086 10084 10082 10080 10079 10077 10074 10073 10070 10068 10066 10065 10063 10060 10056 10054 10052 10051 10051 10050 10049 10048 10046 10043 10041 10039 10038 10038 10036 10035 10033 10032 10032 10032 10031 10031 10029 10027 10025 10023 10022 10021 10020 10019 10019 10019 10019 10019 10018 10018 10018 10018 10017 10017 10017 10017 10016 10016 10016 10016 10016 10016 10015 10015 10014 10014
10149 10144 10139 10134 10129 10125 10121 10118 10114 10112 10110 10108 10104 10102 10099 10096 10093 10089 10086 10083 10079 10077 10075 10074 10072 10071 10069 10067 10064 10063 10061 10059 10056 10054 10051 10049 10048 10047 10046 10046 10044 10043 10041 10039 10037 10035 10034 10033 10032 10031 10029 10029 10028 10028 10028 10026 10024 10023 10021 10019 10018 10017 10017 10016 10016 10016 10016 10016 10015 10015 10014 10014 10014 10014 10014 10014 10014 10013 10013 10013 10013 10012 10012 10011 10011 10011
10141 10137 10133 10128 10123 10118 10114 10110 10107 10104 10102 10099 10098 10095 10092 10089 10086 10084 10080 10077 10074 10071 10069 10068 10066 10064 10063 10061 10059 10057 10055 10053 10051 10048 10046 10044 10043 10043 10042 10041 10039 10038 10036 10034 10033 10031 10030 10029 10028 10027 10026 10025 10024 10024 10023 10022 10021 10019 10017 10016 10015 10014 10014 10013 10013 10013 10013 10013 10012 10012 10011 10011 10011 10011 10011 10011 10011 10011 10010 10010 10009 10009 10009 10008 10008 10008
10134 10129 10125 10121 10116 10111 10107 10103 10099 10097 10094 10093 10091 10088 10086 10083 10081 10078 10075 10072 10069 10066 10064 10062 10061 10059 10057 10056 10054 10052 10050 10048 10046 10043 10041 10040 10039 10038 10038 10036 10035 10033 10031 10029 10028 10027 10026 10025 10024 10023 10023 10022 10021 10021 10019 10018 10016 10015 10013 10013 10012 10011 10011 10011 10010 10010 10009 10009 10009 10009 10009 10009 10008 10008 10008 10008 10008 10008 10008 10007 10007 10006 10006 10006 10005 10005
10126 10122 10118 10113 10109 10104 10101 10097 10093 10091 10088 10086 10084 10082 10079 10077 10074 10072 10069 10066 10064 10061 10059 10057 10055 10053 10052 10050 10048 10046 10045 10043 10041 10039 10037 10036 10034 10034 10033 10031 10030 10029 10027 10026 10024 10023 10022 10021 10021 10020 10019 10018 10018 10017 10016 10014 10013 10011 10010 10009 10009 10008 10008 10008 10008 10008 10007 10007 10006 10006 10006 10006 10006 10006 10006 10005 10005 10005 10004 10004 10004 10004 10003 10003 10003 10002
10118 10114 10110 10106 10103 10098 10094 10091 10088 10084 10082 10080 10078 10076 10074 10071 10069 10066 10064 10061 10059 10056 10054 10052 10050 10048 10047 10045 10043 10041 10039 10038 10036 10035 10033 10032 10031 10029 10028 10027 10026 10024 10023 10021 10020 10019 10018 10018 10017 10016 10016 10015 10014 10013 10012 10011 10009 10008 10007 10006 10006 10006 10005 10005 10005 10004 10004 10004 10004 10004 10004 10003 10003 10003 10003 10003 10003 10002 10002 10001 10001 10001 10001 10000 10000 9999
10111 10107 10103 10099 10096 10093 10089 10086 10083 10079 10076 10074 10072 10070 10068 10066 10063 10061 10059 10056 10054 10051 10049 10047 10045 10044 10042 10040 10038 10036 10035 10033 10032 10031 10029 10028 10027 10026 10024 10023 10021 10020 10019 10018 10016 10016 10015 10014 10014 10013 10013 10012 10011 10010 10008 10007 10006 10004 10004 10003 10003 10003 10003 10003 10003 10002 10002 10001 10001 10001 10001 10001 10001 10001 10000 10000 10000 9999 9999 9999 9999 9998 9998 9998 9998 9998
10104 10100 10096 10093 10090 10087 10083 10081 10078 10074 10071 10069 10066 10064 10062 10060 10058 10056 10054 10051 10049 10047 10044 10043 10041 10039 10037 10035 10033 10032 10030 10029 10028 10026 10025 10024 10023 10022 10020 10019 10018 10016 10015 10014 10013 10013 10012 10011 10011 10010 10009 10009 10008 10006 10005 10004 10003 10001 10001 10001 10001 10000 10000 10000 10000 9999 9999 9999 9999 9999 9999 9998 9998 9998 9998 9998 9998 9997 9997 9996 9996 9996 9996 9996 9996 9996
10098 10094 10091 10088 10084 10081 10078 10076 10073 10069 10067 10064 10061 10059 10057 10055 10053 10051 10049 10047 10044 10043 10040 10038 10036 10034 10033 10031 10029 10028 10026 10024 10023 10022 10021 10020 10019 10018 10016 10015 10014 10013 10011 10011 10010 10009 10009 10008 10008 10007 10006 10006 10004 10003 10002 10001 9999 9999 9998 9998 9998 9998 9998 9998 9998 9998 9997 9997 9997 9996 9996 9996 9996 9996 9996 9996 9995 9995 9994 9994 9994 9994 9994 9994 9994 9994
10091 10088 10084 10082 10079 10076 10073 10071 10068 10065 10062 10059 10057 10054 10052 10050 10048 10046 10044 10043 10040 10038 10036 10034 10032 10030 10028 10026 10025 10023 10022 10021 10019 10018 10017 10016 10015 10014 10013 10011 10010 10009 10008 10008 10007 10006 10006 10005 10004 10004 10003 10003 10001 10000 9999 9998 9997 9996 9996 9996 9996 9996 9996 9996 9995 9995 9995 9995 9994 9994 9994 9994 9994 9994 9994 9993 9993 9993 9993 9992 9992 9992 9992 9992 9992 9992
10085 10082 10079 10076 10074 10071 10068 10066 10063 10060 10058 10054 10052 10049 10048 10046 10044 10042 10040 10038 10036 10034 10032 10030 10028 10026 10024 10023 10021 10019 10018 10016 10016 10014 10014 10013 10012 10011 10009 10008 10006 10006 10005 10004 10004 10003 10003 10002 10001 10001 10000 9999 9998 9998 9996 9995 9994 9994 9994 9994 9994 9994 9994 9993 9993 9993 9993 9993 9993 9993 9993 9993 9992 9992 9991 9991 9991 9991 9991 9990 9990 9990 9990 9991 9991 9991
10080 10077 10074 10071 10068 10066 10063 10061 10058 10056 10053 10050 10048 10045 10043 10041 10039 10037 10036 10034 10032 10030 10028 10026 10024 10022 10021 10019 10018 10016 10014 10013 10012 10011 10010 10009 10008 10007 10005 10004 10003 10003 10002 10001 10001 10000 9999 9999 9998 9998 9997 9996 9996 9995 9994 9993 9993 9992 9992 9992 9992 9991 9991 9991 9991 9991 9991 9991 9991 9991 9991 9991 9990 9990 9989 9989 9989 9989 9989 9989 9989 9989 9989 9989 9989 9989
10074 10071 10069 10066 10063 10061 10059 10056 10054 10051 10048 10046 10043 10041 10039 10037 10035 10033 10031 10029 10028 10026 10024 10022 10020 10019 10017 10015 10014 10013 10011 10010 10009 10008 10007 10006 10004 10003 10002 10001 10000 9999 9999 9998 9998 9997 9996 9996 9995 9995 9994 9994 9993 9993 9992 9991 9991 9990 9990 9990 9990 9990 9989 9989 9989 9989 9989 9989 9989 9989 9989 9989 9988 9988 9988 9988 9988 9987 9987 9988 9988 9988 9988 9988 9988 9988
10069 10066 10064 10061 10059 10056 10054 10051 10049 10046 10044 10041 10039 10037 10034 10033 10031 10029 10027 10025 10024 10022 10020 10018 10017 10015 10014 10012 10011 10009 10008 10006 10006 10004 10004 10002 10001 9999 9999 9998 9998 9997 9996 9996 9995 9994 9994 9993 9993 9993 9992 9991 9991 9991 9990 9989 9989 9988 9988 9988 9988 9988 9988 9988 9988 9988 9988 9988 9988 9988 9987 9987 9987 9986 9986 9986 9986 9986 9986 9986 9986 9986 9987 9987 9987 9988
10064 10061 10059 10056 10054 10052 10049 10047 10044 10042 10039 10037 10035 10033 10031 10029 10027 10025 10023 10021 10020 10018 10016 10015 10013 10012 10010 10009 10008 10006 10004 10004 10003 10001 10000 9999 9998 9997 9996 9995 9995 9994 9994 9993 9993 9992 9991 9991 9990 9990 9989 9989 9989 9989 9988 9988 9987 9986 9986 9986 9987 9987 9986 9986 9986 9986 9986 9986 9986 9986 9986 9985 9985 9985 9985 9985 9985 9985 9985 9985 9986 9986 9986 9986 9986 9986
10059 10057 10054 10052 10050 10048 10045 10043 10041 10038 10036 10033 10031 10029 10027 10025 10023 10021 10019 10018 10016 10015 10013 10012 10010 10009 10008 10006 10004 10003 10002 10001 9999 9998 9997 9996 9995 9994 9994 9993 9993 9992 9991 9991 9990 9989 9989 9989 9988 9988 9988 9988 9987 9987 9986 9986 9985 9985 9985 9985 9985 9985 9985 9985 9985 9985 9984 9984 9984 9984 9984 9984 9984 9984 9984 9984 9984 9984 9984 9984 9984 9985 9985 9985 9986 9986
10055 10053 10050 10048 10046 10043 10041 10039 10037 10034 10032 10029 10028 10026 10023 10021 10020 10018 10016 10015 10013 10012 10010 10009 10008 10006 10004 10003 10002 10001 9999 9998 9997 9996 9994 9993 9993 9992 9991 9991 9990 9989 9989 9988 9988 9987 9987 9986 9986 9986 9986 9986 9986 9985 9984 9984 9984 9984 9984 9984 9984 9984 9984 9984 9984 9983 9983 9983 9983 9983 9983 9983 9983 9983 9983 9983 9983 9983 9984 9984 9984 9984 9984 9984 9984 9985
10051 10048 10046 10043 10041 10039 10038 10036 10033 10031 10029 10026 10024 10023 10020 10018 10016 10015 10013 10012 10010 10009 10008 10006 10004 10003 10002 10000 9999 9998 9996 9995 9994 9993 9992 9991 9991 9990 9989 9989 9988 9988 9987 9986 9986 9986 9985 9985 9984 9984 9984 9984 9984 9984 9983 9983 9983 9983 9983 9983 9983 9983 9983 9983 9982 9982 9982 9982 9982 9982 9982 9982 9982 9983 9983 9983 9983 9983 9983 9983 9983 9984 9984 9984 9984 9984
10047 10044 10042 10039 10037 10035 10033 10032 10030 10028 10026 10024 10021 10019 10018 10016 10014 10012 10011 10009 10008 10006 10004 10003 10002 10001 9999 9998 9996 9996 9994 9993 9992 9991 9990 9989 9989 9988 9988 9987 9986 9986 9985 9984 9984 9984 9984 9983 9983 9983 9983 9983 9983 9982 9982 9982 9982 9982 9982 9982 9982 9982 9981 9981 9981 9981 9981 9981 9981 9981 9981 9981 9982 9982 9982 9982 9982 9983 9983 9983 9983 9983 9983 9983 9984 9984
10043 10041 10038 10035 10033 10031 10029 10028 10026 10024 10023 10021 10019 10016 10014 10013 10011 10009 10008 10006 10005 10003 10002 10001 9999 9998 9997 9996 9994 9993 9992 9991 9990 9989 9988 9988 9987 9986 9986 9985 9984 9984 9984 9983 9983 9983 9983 9982 9982 9982 9982 9981 9981 9981 9981 9981 9981 9981 9981 9981 9981 9981 9981 9980 9980 9980 9980 9981 9981 9981 9981 9981 9981 9981 9981 9981 9982 9982 9982 9983 9983 9983 9983 9983 9983 9983
10039 10037 10034 10032 10029 10028 10026 10024 10022 10021 10019 10018 10016 10014 10012 10010 10009 10007 10006 10004 10003 10001 9999 9998 9997 9996 9994 9993 9992 9991 9990 9989 9988 9988 9986 9986 9985 9984 9984 9983 9983 9983 9983 9982 9982 9981 9981 9981 9981 9981 9981 9981 9980 9980 9980 9980 9980 9980 9980 9980 9980 9979 9979 9979 9979 9979 9980 9980 9980 9980 9981 9981 9981 9981 9981 9981 9981 9981 9982 9982 9982 9982 9983 9983 9983 9983